Location: Montr�al
(45.5000°N, 73.5830°W)
Time: 13:32:21
(UTC-04:00)

Cosmos 1151 Rocket - Visible Passes

Search period start: 30 March 2015 00:00
Search period end: 09 April 2015 00:00
Orbit: 593 x 618 km, 82.5° (Epoch: 29 March)

Date Brightness Start Highest point End Pass type
(mag) Time Alt. Az. Time Alt. Az. Time Alt. Az.
30 Mar 3.7 20:20:20 10° SSE 20:24:12 33° E 20:28:05 10° NNE visible
30 Mar 5.3 21:58:23 10° SW 22:01:54 23° WNW 22:05:20 10° NNW visible
31 Mar 3.0 20:33:01 10° S 20:37:14 55° E 20:41:27 10° NNE visible
31 Mar 6.0 22:12:42 10° WSW 22:15:17 15° WNW 22:17:42 10° NNW visible
01 Apr 3.0 20:46:00 10° S 20:50:19 87° W 20:54:38 10° N visible
02 Apr 3.9 20:59:16 10° SSW 21:03:28 52° WNW 21:07:41 10° N visible
03 Apr 4.9 21:12:49 10° SW 21:16:42 32° WNW 21:20:33 10° N visible
04 Apr 5.7 21:26:45 10° WSW 21:30:01 20° WNW 21:33:11 10° NNW visible
05 Apr 6.5 05:54:07 10° NE 05:55:59 13° ENE 05:58:01 10° E visible
05 Apr 3.0 20:01:00 10° S 20:05:15 65° E 20:09:31 10° NNE visible
05 Apr 6.3 21:41:20 10° W 21:43:25 13° WNW 21:45:19 10° NW visible
06 Apr 3.3 20:14:04 10° SSW 20:18:22 75° W 20:22:39 10° N visible
07 Apr 4.3 20:27:25 10° SSW 20:31:31 44° WNW 20:35:38 10° N visible
08 Apr 5.4 20:41:04 10° SW 20:44:47 27° WNW 20:48:26 10° NNW visible
